Regional Weather Roundup
Issued by NWS

Home | Current Version | Previous Version | Text Only | Print | Product List | Glossary On
Versions: 1 2 3 4 5 6 7 8 9 10 11 12 13 14 15 16 17 18 19 20 21 22 23 24 25 26 27 28 29 30 31 32 33 34 35 36 37 38 39 40 41 42 43 44 45 46 47 48 49 50
000
ASUS44 KJAN 211610
RWRMS

MISSISSIPPI HOURLY WEATHER ROUNDUP
NATIONAL WEATHER SERVICE JACKSON MS
1100 AM CDT SUN SEP 21 2014

NOTE: "FAIR: INDICATES FEW OR NO CLOUDS BELOW 12,000 FEET WITH NO
SIGNIFICANT WEATHER AND/OR OBSTRUCTIONS TO VISIBILITY.

MSZ001>002-007>008-010>013-018>021-025>028-034>036-211700-
NORTHWEST MISSISSIPPI

CITY           SKY/WX    TMP DP  RH WIND       PRES   REMARKS
CLARKSDALE     FAIR      86  68  54 CALM      30.06S
CLEVELAND      FAIR      86  71  59 W7        30.05F HX  92
GREENWOOD      SUNNY     84  69  60 VRB6      30.07R
GREENVILLE     SUNNY     87  69  54 VRB6      30.05F HX  91
GRENADA        FAIR      82  68  61 W3        30.07S
OLIVE BRANCH   MOSUNNY   82  73  74 SW9       30.05F
OXFORD         FAIR      81  66  61 SW7       30.08F
TUNICA         SUNNY     84  68  58 W7        30.06S
$$

MSZ003>006-009-014>017-022>024-029>033-037>039-211700-
NORTHEAST MISSISSIPPI

CITY           SKY/WX    TMP DP  RH WIND       PRES   REMARKS
COLUMBUS AFB   SUNNY     83  66  56 W5        30.07S
CORINTH        FAIR      84  66  54 SW8G16    30.04S
GOLDN TRIANGLE SUNNY     84  64  51 SW7       30.08S
STARKVILLE     FAIR      82  64  54 W7        30.07F
TUPELO         SUNNY     83  66  56 W10       30.06S
$$

MSZ040-058-211700-
CENTRAL MISSISSIPPI

CITY           SKY/WX    TMP DP  RH WIND       PRES   REMARKS
JACKSON INTL   SUNNY     84  65  52 CALM      30.08S
JACKSON HAWKNS SUNNY     85  65  51 CALM      30.08S
MERIDIAN KEY   SUNNY     82  64  54 VRB3      30.08S
MERIDIAN NAS   SUNNY     83  63  50 VRB5      30.08S
RAYMOND        FAIR      84  77  79 S5        30.08S HX  94
VICKSBURG      SUNNY     86  68  54 W3        30.07S
$$

MSZ059>079-211700-
SOUTH MISSISSIPPI

CITY           SKY/WX    TMP DP  RH WIND       PRES   REMARKS
BROOKHAVEN     FAIR      82  66  57 NE6       30.10S
COLUMBIA       FAIR      82  66  57 VRB3      30.06S
HATTIESBURG    SUNNY     82  67  60 VRB3      30.07F
MCCOMB         SUNNY     80  65  59 E3        30.07S
NATCHEZ        SUNNY     82  72  69 CALM      30.08S
PINE BELT      SUNNY    N/A N/A N/A CALM      30.09S
$$

MSZ080>082-211700-
COASTAL MISSISSIPPI

CITY           SKY/WX    TMP DP  RH WIND       PRES   REMARKS
BAY ST LOUIS   SUNNY     82  66  57 E8        30.05R
BILOXI         SUNNY     84  68  58 E8        30.04S
PASCAGOULA     SUNNY     84  67  56 NE8       30.04R
GULFPORT       SUNNY     84  68  58 CALM      30.04S
$$



USA.gov is the U.S. government's official web portal to all federal, state and local government web resources and services.